Showing default

KUIPER-00208, 67775

Orbit data source: Space-Track

KUIPER-00208, 67775 is a payload satellite owned by Kuiper Systems (US) in LEO that was launched on Thu, 12 Feb 2026 UTC via an ARIANE 64 launch vehicle from the French Guiana (FRGUI). Payload-class satellites include a variety of spacecraft equipped with specific instruments for various scientific and technological missions. These include communications satellites like Starlink; space stations such as the ISS; scientific satellites like the Hubble; Earth observation satellites from companies like Planet Labs, Umbra, and HawkEye 360; GPS; miniature CubeSats for education and research; and military/defense satellites.

Loading next visibility...
Identifier
67775, 2026-030M
Orbit
LEO
Country
Flag of USUS
Related business
Manufacturer
Kuiper Systems
Mission
Operational Commercial Communications
Bus & Motor
KUIPER, Unknown motor
Mass
~490 kg wet, ~490 kg dry
Launch date (UTC)
2026-02-12 (4 months ago)
Launch vehicle
ARIANE 64
Launch site
French Guiana (FRGUI)
Object type
Payload
Rocket body
Debris
Shape & HBR
Box + 2 Pan, 3.4 m
Radar Cross Section
2.326 m², Large (>1 m²)

Expand to show TLE details & history
Last TLE update: 18 hours ago

TLE from 18 hours ago
0 KUIPER-00208
1 67775U 26030M   26171.23876986  .00001795  00000-0  28618-3 0  9999
2 67775  51.8968 116.5156 0007988  45.3318 314.8293 14.76457612 20401
Epoch: 2026-06-20T05:43Z
TLE epoch observation values (Epoch: 2026-06-20T05:43:49.715Z)
Latitude
-0.00001°
Longitude
122.10219°
Altitude
637.323 km
Speed
7.543 km/s
True Right ascension
07h 46m 03s
True Declination
0° 00' 00"
Sunlit
Object was in daylight at epoch
Visualization orbit readout
Latitude
Unknown
Longitude
Unknown
Altitude
Unknown
Speed
Unknown
Apparent Right ascension
Unknown
Apparent Declination
Unknown
Sunlit
N/A
Visualization observer readout
Local Sidereal Time
10:17:13
Azimuth
Unknown
Elevation
Unknown
Doppler factor
Unknown
Orbital elements
Apogee altitude
646.586 km
Perigee altitude
635.372 km
Semi-major axis
7,019.116 km
Eccentricity
0.0008
Inclination
51.8968°
RAAN
116.5156°
Arg. of periapsis
45.3318°
True anomaly
314.76434°
Mean anomaly
314.8293°
Eccentric anomaly
314.79682°
Mean motion
3.69079 °/min
Orbital period
97.54 mins
BSTAR
0.00028618
Loading maneuver chart data...
Computing Atmospheric mass density...
Loading historical data...
Loading historical data...
Loading historical data...
Loading historical data...
Loading historical data...
Loading historical data...
Loading historical data...

Documentation

Showing up to 5 results
|